TimeAKDT,TemperatureF,Dew PointF,Humidity,Sea Level PressureIn,VisibilityMPH,Wind Direction,Wind SpeedMPH,Gust SpeedMPH,PrecipitationIn,Events,Conditions,WindDirDegrees,DateUTC
12:53 AM,50.0,48.0,93,29.59,10.0,Calm,Calm,-,0.00,Rain,Light Rain,0,2012-09-21 08:53:00
1:53 AM,50.0,48.0,93,29.57,10.0,SE,3.5,-,0.01,,Mostly Cloudy,130,2012-09-21 09:53:00
2:53 AM,50.0,48.9,96,29.59,10.0,Calm,Calm,-,0.00,Rain,Light Rain,0,2012-09-21 10:53:00
3:53 AM,48.0,46.9,96,29.61,8.0,Calm,Calm,-,0.05,Rain,Light Rain,0,2012-09-21 11:53:00
4:53 AM,48.0,46.9,96,29.63,5.0,South,5.8,-,0.09,Rain,Rain,190,2012-09-21 12:53:00
5:53 AM,46.9,46.0,97,29.65,5.0,SSW,4.6,-,0.05,Rain,Light Rain,200,2012-09-21 13:53:00
6:33 AM,46.4,46.4,100,29.65,2.0,Calm,Calm,-,0.00,,Overcast,0,2012-09-21 14:33:00
6:37 AM,46.4,46.4,100,29.65,1.0,South,3.5,-,0.00,,Overcast,190,2012-09-21 14:37:00
6:53 AM,46.9,46.0,97,29.69,0.8,Calm,Calm,-,0.00,,Mist,0,2012-09-21 14:53:00
7:07 AM,46.4,46.4,100,29.67,0.2,Calm,Calm,-,N/A,Fog,Fog,0,2012-09-21 15:07:00
7:24 AM,46.4,46.4,100,29.68,0.5,SSE,3.5,-,N/A,Fog,Fog,150,2012-09-21 15:24:00
7:53 AM,46.0,45.0,96,29.72,0.5,Calm,Calm,-,N/A,Fog,Fog,0,2012-09-21 15:53:00
7:56 AM,46.4,44.6,93,29.70,0.5,Calm,Calm,-,N/A,Fog,Fog,0,2012-09-21 15:56:00
8:03 AM,46.4,46.4,100,29.71,0.5,Calm,Calm,-,N/A,Fog,Fog,0,2012-09-21 16:03:00
8:29 AM,44.6,44.6,100,29.73,0.2,Calm,Calm,-,N/A,Fog,Fog,0,2012-09-21 16:29:00
8:44 AM,44.6,44.6,100,29.75,0.5,WSW,4.6,-,N/A,Fog,Fog,240,2012-09-21 16:44:00
8:53 AM,45.0,45.0,100,29.77,0.5,South,3.5,-,N/A,Fog,Fog,190,2012-09-21 16:53:00
9:00 AM,44.6,44.6,100,29.76,0.2,South,3.5,-,N/A,Fog,Fog,170,2012-09-21 17:00:00
9:53 AM,45.0,45.0,100,29.81,0.2,Calm,Calm,-,N/A,Fog,Fog,0,2012-09-21 17:53:00
9:59 AM,44.6,44.6,100,29.79,0.5,Calm,Calm,-,N/A,Fog,Fog,0,2012-09-21 17:59:00
10:17 AM,44.6,44.6,100,29.80,0.2,Calm,Calm,-,N/A,Fog,Fog,0,2012-09-21 18:17:00
10:24 AM,44.6,44.6,100,29.81,0.2,Calm,Calm,-,N/A,Fog,Fog,0,2012-09-21 18:24:00
10:34 AM,44.6,44.6,100,29.82,0.2,Calm,Calm,-,N/A,Fog,Fog,0,2012-09-21 18:34:00
10:43 AM,44.6,44.6,100,29.82,0.2,Calm,Calm,-,N/A,Fog,Fog,0,2012-09-21 18:43:00
10:46 AM,44.6,44.6,100,29.82,0.5,Calm,Calm,-,N/A,Fog,Fog,0,2012-09-21 18:46:00
10:53 AM,45.0,44.1,97,29.84,0.5,Calm,Calm,-,N/A,Fog,Fog,0,2012-09-21 18:53:00
11:47 AM,46.4,44.6,93,29.84,0.8,Calm,Calm,-,N/A,,Mostly Cloudy,0,2012-09-21 19:47:00
11:53 AM,46.9,46.0,97,29.86,0.8,Calm,Calm,-,N/A,,Mostly Cloudy,0,2012-09-21 19:53:00
11:57 AM,48.2,46.4,93,29.84,4.0,Calm,Calm,-,N/A,,Mostly Cloudy,0,2012-09-21 19:57:00
12:53 PM,54.0,48.0,80,29.86,10.0,North,3.5,-,N/A,,Mostly Cloudy,10,2012-09-21 20:53:00
1:53 PM,57.0,46.0,67,29.86,10.0,Calm,Calm,-,N/A,,Mostly Cloudy,0,2012-09-21 21:53:00
2:53 PM,59.0,45.0,60,29.86,10.0,Calm,Calm,-,N/A,,Mostly Cloudy,0,2012-09-21 22:53:00
3:53 PM,59.0,45.0,60,29.86,10.0,East,5.8,-,N/A,,Mostly Cloudy,80,2012-09-21 23:53:00
4:53 PM,59.0,43.0,55,29.83,10.0,East,6.9,-,N/A,,Mostly Cloudy,100,2012-09-22 00:53:00
5:53 PM,60.1,37.9,44,29.83,10.0,East,3.5,-,N/A,,Mostly Cloudy,100,2012-09-22 01:53:00
6:53 PM,55.0,42.1,62,29.82,10.0,NNE,4.6,-,N/A,,Mostly Cloudy,20,2012-09-22 02:53:00
7:53 PM,52.0,41.0,66,29.79,10.0,North,6.9,-,N/A,,Mostly Cloudy,10,2012-09-22 03:53:00
8:53 PM,48.0,39.0,71,29.77,10.0,North,6.9,-,N/A,,Scattered Clouds,360,2012-09-22 04:53:00
9:53 PM,52.0,39.0,61,29.74,10.0,North,8.1,-,N/A,,Scattered Clouds,350,2012-09-22 05:53:00
10:53 PM,51.1,39.9,66,29.71,10.0,NE,5.8,-,0.00,Rain,Light Rain,40,2012-09-22 06:53:00
11:53 PM,50.0,41.0,71,29.68,10.0,ENE,3.5,-,0.00,,Mostly Cloudy,60,2012-09-22 07:53:00